Home   Weather   47°48'N, 122°14'W   Past weeks
Flag for USA

Past Weather in 47°48'N, 122°14'W, USA — Yesterday and Last 2 Weeks

Now
68 °F

Overcast.


Feels Like: 68 °F
Forecast: 65 / 60 °F
Wind: 3 mph from South

Location: Seattle Boeing Field

Current Time: Jul 16, 2019 at 11:57:32 pm

Latest Report: Jul 16, 2019 at 10:53 pm


Visibility: 10 mi

Pressure: 29.95 "Hg

Humidity: 61%

Dew Point: 54 °F

Location of 47°48'N, 122°14'WLocation

Past Weather in 47°48'N, 122°14'W — Graph

°F

47°48'N, 122°14'W Temperature Yesterday

Maximum temperature yesterday: 71 °F (at 5:53 pm)
Minimum temperature yesterday: 65 °F (at 2:53 am)
Average temperature yesterday: 67 °F

High & Low Weather Summary for the Past Weeks

 TemperatureHumidityPressure
High80 °F (Jul 16, 3:53 pm)90% (Jul 3, 1:00 am)30.15 "Hg (Jul 3, 1:00 am)
Low56 °F (Jul 4, 4:34 am)32% (Jul 12, 6:53 pm)29.92 "Hg (Jul 16, 6:53 pm)
Average66 °F67%30.04 "Hg
* Reported Jul 1 9:53 pm — Jul 16 9:53 pm, 47°48'N, 122°14'W. Weather by CustomWeather, © 2019

Note: Actual official high and low records may vary slightly from our data, if they occured in-between our weather recording intervals... More about our weather records

Advertising

47°48'N, 122°14'W Weather History for the Previous 24 Hours

Scroll right to see more
 ConditionsComfort  
Time TempWeatherWind HumidityBarometerVisibility
9:53 pm
Tue, Jul 16
68 °FPartly cloudy.No wind59%29.93 "Hg10 mi
8:53 pm71 °FBroken clouds.5 mph53%29.93 "Hg10 mi
7:53 pm75 °FBroken clouds.7 mph48%29.93 "Hg10 mi
6:53 pm78 °FScattered clouds.6 mph39%29.92 "Hg10 mi
5:53 pm80 °FScattered clouds.7 mph38%29.93 "Hg10 mi
4:53 pm79 °FScattered clouds.5 mph38%29.94 "Hg10 mi
3:53 pm80 °FBroken clouds.5 mph38%29.96 "Hg10 mi
2:53 pm78 °FSunny.N/A42%29.97 "Hg10 mi
1:53 pm75 °FBroken clouds.6 mph50%29.99 "Hg10 mi
1:00 pm74 °FBroken clouds.No wind53%30.01 "Hg10 mi
11:53 am71 °FBroken clouds.No wind63%30.02 "Hg10 mi
10:53 am69 °FPartly sunny.5 mph68%30.02 "Hg10 mi
9:53 am67 °FOvercast.No wind71%30.03 "Hg10 mi
8:53 am66 °FOvercast.3 mph75%30.03 "Hg10 mi
7:53 am64 °FBroken clouds.No wind78%30.03 "Hg10 mi
7:00 am64 °FMostly cloudy.3 mph75%30.02 "Hg10 mi
5:53 am64 °FBroken clouds.No wind78%30.02 "Hg10 mi
4:53 am63 °FPartly cloudy.No wind78%30.02 "Hg10 mi
3:53 am63 °FMostly cloudy.3 mph78%30.02 "Hg10 mi
2:53 am65 °FPassing clouds.3 mph78%30.02 "Hg10 mi
1:53 am65 °FPartly cloudy.3 mph78%30.03 "Hg10 mi
1:04 am66 °FMostly cloudy.3 mph75%30.04 "Hg10 mi
11:53 pm
Mon, Jul 15
67 °FMostly cloudy.3 mph71%30.04 "Hg10 mi
Weather by CustomWeather, © 2019

See weather overview